Location: Tucson
(32.2217°N, 110.9265°W)
Time: 07:31:51
(UTC-07:00)

Tiros 1 - Pass Details

Date: 03 November 2021
Orbit: 629 x 664 km, 48.4° (Epoch: 26 November)

Event Time Altitude Azimuth Distance (km) Brightness Sun altitude
Rises 12:47:33 0° 311° (NW) 2,975 10.3 41.5°
Reaches altitude 10° 12:49:55 10° 314° (NW) 2,056 9.6 41.4°
Maximum altitude 12:54:39 72° 38° (NE) 679 7.7 41.1°
Drops below altitude 10° 12:59:19 10° 124° (ESE) 2,026 10.0 40.9°
Sets 13:01:38 0° 126° (SE) 2,927 10.7 40.7°
